Location: Eberbach
(49.4690°N, 8.9930°E)
Time: 15:13:54
(UTC+01:00)

ISS - Visible Passes

Search period start: 25 March 2019 00:00
Search period end: 04 April 2019 01:00
Orbit: 408 x 411 km, 51.6° (Epoch: 25 March)

Date Brightness Start Highest point End Pass type
(mag) Time Alt. Az. Time Alt. Az. Time Alt. Az.
25 Mar -3.9 20:17:03 10° WSW 20:20:22 88° SSE 20:21:38 35° ENE visible
25 Mar -0.7 21:53:51 10° W 21:54:25 14° WNW 21:54:25 14° WNW visible
26 Mar -3.7 19:26:29 10° WSW 19:29:46 63° SSE 19:33:03 10° ENE visible
26 Mar -3.1 21:03:09 10° W 21:06:02 53° NW 21:06:02 53° NW visible
27 Mar -3.5 20:12:26 10° W 20:15:44 66° N 20:17:33 24° ENE visible
27 Mar -1.1 21:49:15 10° WNW 21:50:19 19° WNW 21:50:19 19° WNW visible
28 Mar -3.7 19:21:45 10° WSW 19:25:04 81° NNW 19:28:23 10° ENE visible
28 Mar -3.4 20:58:34 10° WNW 21:01:45 57° N 21:01:45 57° N visible
29 Mar -3.3 20:07:51 10° W 20:11:08 56° N 20:13:09 21° ENE visible
29 Mar -1.4 21:44:34 10° WNW 21:45:54 22° WNW 21:45:54 22° WNW visible
30 Mar -3.4 19:17:06 10° W 19:20:23 61° N 19:23:40 10° ENE visible
30 Mar -3.8 20:53:53 10° WNW 20:57:11 70° NNE 20:57:15 70° NNE visible
31 Mar -3.5 21:03:10 10° WNW 21:06:27 60° N 21:08:35 20° E visible
31 Mar -1.6 22:39:49 10° WNW 22:41:21 24° W 22:41:21 24° W visible
01 Apr -4.0 21:49:06 10° WNW 21:52:25 79° SSW 21:52:40 72° SSE visible
02 Apr -3.8 20:58:23 10° WNW 21:01:42 79° NNE 21:03:59 19° ESE visible
02 Apr -1.6 22:35:11 10° W 22:36:44 21° WSW 22:36:44 21° WSW visible
03 Apr -3.2 21:44:19 10° WNW 21:47:30 44° SSW 21:48:04 39° S visible
